Flag for Portugal Weather past 2 weeks in Cascais, Portugal

Now
64 °F

Passing clouds.


Feels Like: 64 °F
Forecast: 65 / 74 °F
Wind: 6 mph from Northwest

Location: Lisbon Portela Airport

Current Time: Aug 3, 2015 at 4:14:02 AM

Latest Report: Aug 3, 2015 at 3:30 AM


Visibility: N/A

Pressure: 29.98 "Hg

Humidity: 78%

Dew point: 57 °F

Location of CascaisLocation

Historic Weather in Cascais — Graph

°F

Cascais temperature yesterday

Maximum temperature yesterday: 88 °F (at 2:00 PM)
Minimum temperature yesterday: 63 °F (at 3:00 AM)
Average temperature yesterday: 73 °F

Past Weeks' High & Low Weather Summary

 TemperatureHumidityPressure
High88 °F (Aug 2, 2:00 PM)94% (Jul 19, 4:30 AM)30.12 "Hg (Jul 19, 4:30 AM)
Low61 °F (Jul 25, 6:00 AM)31% (Aug 2, 8:30 PM)29.83 "Hg (Jul 31, 2:30 AM)
Average73 °F68%30.00 "Hg
* Reported Jul 19 3:00 AM — Aug 3 3:00 AM, Cascais, Weather by CustomWeather, © 2015

Note: Actual official high and low records may vary slightly from our data, if they occured in-between our weather recording intervals... More about our weather records

Advertising

Cascais weather history for previous 24 hours

 ConditionsComfort  
Time TempWeatherWind HumidityBarometerVisibility
3:00 AM
Mon, Aug 3
64 °FPassing clouds.7 mph78%29.98 "HgN/A
2:30 AM64 °FPassing clouds.7 mph78%29.98 "HgN/A
2:00 AM66 °FPassing clouds.7 mph68%29.98 "HgN/A
1:30 AM66 °FClear.14 mph68%29.98 "Hg10 mi
1:00 AM66 °FPassing clouds.12 mph68%29.98 "HgN/A
12:30 AM66 °FPassing clouds.8 mph68%29.98 "HgN/A
12:00 AM66 °FClear.14 mph68%29.98 "Hg10 mi
11:30 PM
Sun, Aug 2
66 °FClear.12 mph68%29.98 "Hg10 mi
11:00 PM68 °FPassing clouds.12 mph64%29.98 "HgN/A
10:30 PM68 °FPassing clouds.14 mph64%29.98 "HgN/A
10:00 PM70 °FClear.16 mph53%29.98 "Hg10 mi
9:30 PM72 °FSunny.14 mph44%29.95 "Hg10 mi
9:00 PM73 °FSunny.14 mph36%29.95 "Hg10 mi
8:30 PM75 °FSunny.12 mph31%29.95 "Hg10 mi
8:00 PM75 °FClear.14 mph39%29.95 "HgN/A
7:30 PM77 °FSunny.14 mph34%29.95 "Hg10 mi
7:00 PM81 °FSunny.13 mph34%29.95 "Hg10 mi
6:30 PM81 °FSunny.14 mph34%29.95 "Hg10 mi
6:00 PM82 °FSunny.14 mph35%29.95 "Hg10 mi
5:30 PM84 °FSunny.13 mph35%29.95 "Hg10 mi
5:00 PM86 °FPassing clouds.7 mph35%29.95 "HgN/A
4:30 PM86 °FPassing clouds.10 mph35%29.95 "HgN/A
4:00 PM86 °FPassing clouds.8 mph38%29.95 "HgN/A
3:30 PM86 °FSunny.7 mph38%29.95 "Hg10 mi
3:00 PM88 °FPassing clouds.10 mph35%29.95 "HgN/A
2:30 PM88 °FPassing clouds.8 mph33%29.95 "HgN/A
2:00 PM88 °FPassing clouds.7 mph38%29.95 "HgN/A
1:30 PM84 °FSunny.6 mph40%29.95 "Hg10 mi
1:00 PM84 °FSunny.5 mph35%29.95 "Hg10 mi
12:30 PM84 °FSunny.3 mph37%29.95 "Hg10 mi
12:00 PM81 °FSunny.3 mph39%29.95 "Hg10 mi
11:30 AM77 °FSunny.5 mph51%29.95 "Hg10 mi
11:00 AM75 °FSunny.3 mph54%29.95 "Hg10 mi
10:30 AM72 °FPassing clouds.8 mph65%29.95 "HgN/A
10:00 AM68 °FSunny.10 mph73%29.95 "Hg10 mi
9:30 AM68 °FPassing clouds.6 mph73%29.95 "HgN/A
9:00 AM66 °FPassing clouds.7 mph78%29.95 "HgN/A
8:30 AM63 °FPassing clouds.8 mph83%29.95 "HgN/A
8:00 AM63 °FPassing clouds.9 mph83%29.92 "HgN/A
7:30 AM63 °FPassing clouds.10 mph83%29.92 "HgN/A
7:00 AM63 °FPassing clouds.8 mph83%29.92 "HgN/A
6:30 AM63 °FPassing clouds.9 mph83%29.92 "HgN/A
6:00 AM64 °FClear.6 mph73%29.92 "Hg10 mi
5:30 AM66 °FClear.7 mph68%29.92 "Hg10 mi
5:00 AM64 °FClear.8 mph78%29.89 "Hg10 mi
4:30 AM64 °FClear.9 mph78%29.89 "Hg10 mi
4:00 AM63 °FClear.10 mph83%29.89 "Hg10 mi
Weather by CustomWeather, © 2015

See weather overviewHow to use our weather pages